Flag for Russia Weather past 2 weeks in Kazan, Russia

Now
59 °F

Sunny.


Feels Like: 60 °F
Forecast: 44 / 66 °F
Wind: 3 mph from West

Location: Kazan'

Current Time: Sep 20, 2014 at 8:35:21 PM

Latest Report: Sep 20, 2014 at 5:30 PM


Visibility: 10 mi

Pressure: 30.18 "Hg

Humidity: 59%

Dew point: 45 °F

Location of KazanLocation

Historic Weather in Kazan — Graph

°F

Kazan temperature yesterday

Maximum temperature yesterday: 57 °F (at 2:30 PM)
Minimum temperature yesterday: 37 °F (at 12:30 AM)
Average temperature yesterday: 48 °F

Past Weeks' High & Low Weather Summary

 TemperatureHumidityPressure
High72 °F (Sep 12, 4:30 PM)100% (Sep 7, 1:30 AM)30.39 "Hg (Sep 7, 1:30 AM)
Low36 °F (Sep 17, 4:00 AM)39% (Sep 9, 2:00 PM)29.92 "Hg (Sep 6, 5:00 AM)
Average53 °F75%30.18 "Hg
* Reported Sep 5 5:00 PM — Sep 20 5:00 PM, Kazan, Weather by CustomWeather, © 2014

Note: Actual official high and low records may vary slightly from our data, if they occured in-between our weather recording intervals... More about our weather records

Advertising

Kazan weather history for previous 24 hours

 ConditionsComfort  
Time TempWeatherWind HumidityBarometerVisibility
5:00 PM
Sep 20
59 °FSunny.3 mph59%30.18 "Hg10 mi
4:30 PM59 °FSunny.3 mph59%30.18 "Hg10 mi
4:00 PM59 °FSunny.8 mph59%30.18 "Hg10 mi
3:30 PM61 °FSunny.10 mph52%30.18 "Hg10 mi
3:00 PM63 °FSunny.10 mph49%30.21 "Hg10 mi
2:30 PM63 °FSunny.10 mph49%30.21 "Hg10 mi
2:00 PM63 °FSunny.10 mph49%30.21 "Hg10 mi
1:30 PM63 °FSunny.10 mph49%30.21 "Hg10 mi
1:00 PM61 °FSunny.8 mph52%30.24 "Hg10 mi
12:30 PM61 °FSunny.8 mph52%30.24 "Hg10 mi
12:00 PM59 °FSunny.8 mph51%30.24 "Hg10 mi
11:30 AM59 °FSunny.8 mph51%30.24 "Hg10 mi
11:00 AM59 °FSunny.8 mph51%30.24 "Hg10 mi
10:30 AM55 °FSunny.6 mph59%30.27 "Hg10 mi
10:00 AM55 °FSunny.6 mph63%30.27 "Hg10 mi
9:30 AM52 °FSunny.6 mph72%30.27 "Hg10 mi
9:00 AM48 °FSunny.3 mph76%30.27 "Hg10 mi
8:30 AM46 °FSunny.3 mph82%30.27 "Hg10 mi
8:00 AM45 °FSunny.3 mph87%30.27 "Hg10 mi
7:30 AM43 °FSunny.3 mph87%30.27 "Hg10 mi
7:00 AM39 °FClear.3 mph93%30.27 "Hg10 mi
6:30 AM39 °FClear.3 mph93%30.27 "Hg10 mi
6:00 AM39 °FClear.3 mph93%30.27 "Hg10 mi
5:00 AM41 °FClear.3 mph87%30.27 "Hg10 mi
4:30 AM41 °FClear.3 mph87%30.27 "Hg10 mi
4:00 AM41 °FClear.3 mph87%30.27 "Hg10 mi
3:30 AM41 °FClear.3 mph87%30.27 "Hg10 mi
3:00 AM41 °FClear.3 mph87%30.27 "Hg10 mi
2:30 AM41 °FClear.3 mph87%30.27 "Hg10 mi
2:00 AM41 °FClear.3 mph93%30.27 "Hg10 mi
1:30 AM41 °FClear.3 mph93%30.30 "Hg10 mi
1:00 AM41 °FClear.3 mph87%30.30 "Hg10 mi
12:30 AM43 °FClear.3 mph87%30.30 "Hg10 mi
12:00 AM45 °FClear.6 mph81%30.30 "Hg10 mi
11:30 PM
Sep 19
46 °FClear.6 mph76%30.30 "Hg10 mi
11:00 PM46 °FClear.6 mph76%30.30 "Hg10 mi
10:30 PM46 °FClear.6 mph76%30.30 "Hg10 mi
10:00 PM48 °FClear.6 mph71%30.30 "Hg10 mi
9:30 PM46 °FClear.6 mph76%30.33 "Hg10 mi
9:00 PM48 °FClear.6 mph71%30.33 "Hg10 mi
8:30 PM48 °FClear.6 mph71%30.33 "Hg10 mi
8:00 PM48 °FClear.3 mph71%30.33 "Hg10 mi
Weather by CustomWeather, © 2014

See weather overviewHow to use our weather pages